Location: La Junie
(44.7428°N, 2.1773°E)
Time: 15:20:43
(UTC+00:00)

Cosmos 158 Rocket - Pass Details

Date: 15 May 2026
Orbit: 694 x 785 km, 74.0° (Epoch: 10 June)

Event Time Altitude Azimuth Distance (km) Brightness Sun altitude
Exits shadow 23:39:42 48° 96° (E) 1,018 4.5 -26.2°
Drops below altitude 10° 23:44:35 10° 31° (NNE) 2,341 7.2 -26.2°
Sets 23:47:02 0° 27° (NNE) 3,265 8.2 -26.2°
